Home > Weather > Santander > Past weeks

Flag for Spain Weather for the Past 2 Weeks in Santander, Spain

Now
55 °F

Passing clouds.


Feels Like: 51 °F
Forecast: 52 / 62 °F
Wind: 20 mph from West

Location: Santander / Parayas

Current Time: Feb 7, 2016 at 3:17:55 PM

Latest Report: Feb 7, 2016 at 2:30 PM


Visibility: N/A

Pressure: 30.07 "Hg

Humidity: 47%

Dew point: 36 °F

Location of SantanderLocation

Historic Weather in Santander — Graph

°F

Santander Temperature Yesterday

Maximum temperature yesterday: 61 °F (at 1:00 PM)
Minimum temperature yesterday: 46 °F (at 9:30 PM)
Average temperature yesterday: 56 °F

High & Low Weather Summary for the Past Weeks

 TemperatureHumidityPressure
High75 °F (Jan 24, 3:00 PM)100% (Jan 23, 9:00 PM)30.72 "Hg (Jan 23, 9:00 PM)
Low37 °F (Feb 5, 6:00 AM)39% (Jan 24, 3:00 PM)29.59 "Hg (Feb 6, 6:00 PM)
Average55 °F73%30.36 "Hg
* Reported Jan 23 2:00 PM — Feb 7 2:00 PM, Santander, Weather by CustomWeather, © 2016

Note: Actual official high and low records may vary slightly from our data, if they occured in-between our weather recording intervals... More about our weather records

Advertising

Santander Weather History for the Previous 24 Hours

 ConditionsComfort  
Time TempWeatherWind HumidityBarometerVisibility
2:00 PM
Sun, Feb 7
55 °FScattered clouds.23 mph47%30.07 "HgN/A
1:30 PM54 °FScattered clouds.21 mph58%30.07 "HgN/A
1:00 PM54 °FScattered clouds.16 mph51%30.07 "HgN/A
12:30 PM54 °FScattered clouds.26 mph54%30.04 "HgN/A
12:00 PM54 °FScattered clouds.23 mph54%30.04 "HgN/A
11:30 AM54 °FScattered clouds.21 mph54%30.04 "HgN/A
11:00 AM52 °FPassing clouds.18 mph54%30.01 "HgN/A
10:30 AM52 °FPassing clouds.21 mph54%30.01 "HgN/A
10:00 AM50 °FScattered clouds.16 mph58%30.01 "HgN/A
9:30 AM50 °FScattered clouds.21 mph58%29.98 "HgN/A
9:00 AM48 °FPartly sunny.17 mph58%29.98 "HgN/A
8:30 AM48 °FScattered clouds.16 mph62%29.98 "HgN/A
8:00 AM48 °FPassing clouds.17 mph71%29.95 "HgN/A
7:30 AM50 °FPartly cloudy.17 mph54%29.95 "HgN/A
7:00 AM50 °FPartly cloudy.28 mph58%29.92 "HgN/A
6:30 AM46 °FPassing clouds.17 mph76%29.92 "HgN/A
6:00 AM48 °FPassing clouds.20 mph71%29.89 "HgN/A
5:30 AM48 °FPassing clouds.20 mph62%29.89 "HgN/A
11:00 PM
Sat, Feb 6
46 °FPassing clouds.3 mph87%29.74 "HgN/A
10:00 PM46 °FRain. Mostly cloudy.7 mph93%29.74 "Hg2 mi
9:30 PM46 °FRain. Overcast.14 mph93%29.77 "Hg2 mi
9:00 PM48 °FRain. Mostly cloudy.20 mph87%29.77 "Hg2 mi
8:30 PM50 °FRain. Mostly cloudy.18 mph88%29.77 "Hg2 mi
8:00 PM50 °FLight rain. Mostly cloudy.23 mph82%29.74 "Hg4 mi
7:30 PM54 °FPartly cloudy.38 mph72%29.71 "HgN/A
7:00 PM61 °FPassing clouds.26 mph42%29.59 "HgN/A
6:30 PM61 °FPassing clouds.23 mph42%29.59 "HgN/A
6:00 PM61 °FPassing clouds.24 mph45%29.59 "HgN/A
5:30 PM61 °FPassing clouds.18 mph45%29.65 "HgN/A
5:00 PM61 °FPassing clouds.30 mph42%29.68 "HgN/A
4:30 PM59 °FPassing clouds.32 mph45%29.68 "HgN/A
4:00 PM59 °FPassing clouds.31 mph45%29.65 "HgN/A
3:30 PM59 °FPassing clouds.29 mph42%29.68 "HgN/A
3:00 PM59 °FPassing clouds.25 mph42%29.68 "HgN/A
Weather by CustomWeather, © 2016

See weather overviewHow to use our weather pages